Year,Month,Day,Hour,Minute,Value (Times are PST for temperature in C)
2017,06,24,10,33,25.90
2017,06,24,10,34,25.90
2017,06,24,10,35,25.90
2017,06,24,10,36,25.90
2017,06,24,10,37,25.90
2017,06,24,10,38,25.90
2017,06,24,10,39,25.90
2017,06,24,10,40,25.90
2017,06,24,10,41,25.90
2017,06,24,10,42,25.90
2017,06,24,10,43,25.90
2017,06,24,10,44,25.90
2017,06,24,10,45,25.90
2017,06,24,10,46,25.80
2017,06,24,10,47,25.70
2017,06,24,10,48,25.70
2017,06,24,10,49,25.70
2017,06,24,10,50,25.80
2017,06,24,10,51,25.80
2017,06,24,10,52,25.90
2017,06,24,10,53,26.00
2017,06,24,10,54,26.10
2017,06,24,10,55,26.20
2017,06,24,10,56,26.30
2017,06,24,10,57,26.40
2017,06,24,10,58,26.40
2017,06,24,10,59,26.50
2017,06,24,11,00,26.60
2017,06,24,11,01,26.60
2017,06,24,11,02,26.60
2017,06,24,11,03,26.60
2017,06,24,11,04,26.60
2017,06,24,11,05,26.60
2017,06,24,11,06,26.70
2017,06,24,11,07,26.80
2017,06,24,11,08,26.80
2017,06,24,11,09,26.90
2017,06,24,11,10,26.90
2017,06,24,11,11,27.00
2017,06,24,11,12,27.10
2017,06,24,11,13,27.10
2017,06,24,11,14,27.10
2017,06,24,11,15,27.10
2017,06,24,11,16,27.00
2017,06,24,11,17,26.90
2017,06,24,11,18,26.80
2017,06,24,11,19,26.80
2017,06,24,11,20,26.80
2017,06,24,11,21,26.70
2017,06,24,11,22,26.70
2017,06,24,11,23,26.60
2017,06,24,11,24,26.60
2017,06,24,11,25,26.60
2017,06,24,11,26,26.60
2017,06,24,11,27,26.60
2017,06,24,11,28,26.60
2017,06,24,11,29,26.60
2017,06,24,11,30,26.60
2017,06,24,11,31,26.60
2017,06,24,11,32,26.60
2017,06,24,11,33,26.60
2017,06,24,11,34,26.70
2017,06,24,11,35,26.80
2017,06,24,11,36,26.90
2017,06,24,11,37,26.90
2017,06,24,11,38,26.90
2017,06,24,11,39,27.00
2017,06,24,11,40,27.20
2017,06,24,11,41,27.30
2017,06,24,11,42,27.40
2017,06,24,11,43,27.50
2017,06,24,11,44,27.60
2017,06,24,11,45,27.60
2017,06,24,11,46,27.60
2017,06,24,11,47,27.60
2017,06,24,11,48,27.60
2017,06,24,11,49,27.70
2017,06,24,11,50,27.70
2017,06,24,11,51,27.70
2017,06,24,11,52,27.50
2017,06,24,11,53,27.40
2017,06,24,11,54,27.30
2017,06,24,11,55,27.10
2017,06,24,11,56,27.00
2017,06,24,11,57,26.90
2017,06,24,11,58,26.80
2017,06,24,11,59,26.90
2017,06,24,12,00,26.90
2017,06,24,12,01,27.00
2017,06,24,12,02,27.20
2017,06,24,12,03,27.30
2017,06,24,12,04,27.30
2017,06,24,12,05,27.30
2017,06,24,12,06,27.30
2017,06,24,12,07,27.30
2017,06,24,12,08,27.30
2017,06,24,12,09,27.30
2017,06,24,12,10,27.30
2017,06,24,12,11,27.30
2017,06,24,12,12,27.30
2017,06,24,12,13,27.30
2017,06,24,12,14,27.50
2017,06,24,12,15,27.60
2017,06,24,12,16,27.70
2017,06,24,12,17,27.80
2017,06,24,12,18,27.90
2017,06,24,12,19,28.00
2017,06,24,12,20,28.10
2017,06,24,12,21,28.10
2017,06,24,12,22,28.20
2017,06,24,12,23,28.20
2017,06,24,12,24,28.10
2017,06,24,12,25,28.20
2017,06,24,12,26,28.20
2017,06,24,12,27,28.20
2017,06,24,12,28,28.20
2017,06,24,12,29,28.20
2017,06,24,12,30,28.30
2017,06,24,12,31,28.30
2017,06,24,12,32,28.10
2017,06,24,12,33,28.10
2017,06,24,12,34,28.10
2017,06,24,12,35,28.10
2017,06,24,12,36,28.10
2017,06,24,12,37,28.10
2017,06,24,12,38,28.30
2017,06,24,12,39,28.40
2017,06,24,12,40,28.50
2017,06,24,12,41,28.60
2017,06,24,12,42,28.60
2017,06,24,12,43,28.60
2017,06,24,12,44,28.60
2017,06,24,12,45,28.70
2017,06,24,12,46,28.70
2017,06,24,12,47,28.60
2017,06,24,12,48,28.60
2017,06,24,12,49,28.50
2017,06,24,12,50,28.40
2017,06,24,12,51,28.40
2017,06,24,12,52,28.40
2017,06,24,12,53,28.30
2017,06,24,12,54,28.30
2017,06,24,12,55,28.30
2017,06,24,12,56,28.30
2017,06,24,12,57,28.30
2017,06,24,12,58,28.40
2017,06,24,12,59,28.40
2017,06,24,13,00,28.40
2017,06,24,13,01,28.60
2017,06,24,13,02,28.60
2017,06,24,13,03,28.60
2017,06,24,13,04,28.70
2017,06,24,13,05,28.70
2017,06,24,13,06,28.70
2017,06,24,13,07,28.80
2017,06,24,13,08,28.80
2017,06,24,13,09,28.80
2017,06,24,13,10,28.90
2017,06,24,13,11,28.90
2017,06,24,13,12,28.90
2017,06,24,13,13,28.90
2017,06,24,13,14,28.90
2017,06,24,13,15,28.90
2017,06,24,13,16,28.90
2017,06,24,13,17,28.90
2017,06,24,13,18,28.90
2017,06,24,13,19,28.90
2017,06,24,13,20,28.90
2017,06,24,13,21,28.90
2017,06,24,13,22,28.90
2017,06,24,13,23,28.90
2017,06,24,13,24,28.90
2017,06,24,13,25,28.80
2017,06,24,13,26,28.70
2017,06,24,13,27,28.70
2017,06,24,13,28,28.60
2017,06,24,13,29,28.60
2017,06,24,13,30,28.60
2017,06,24,13,31,28.60
2017,06,24,13,32,28.60
2017,06,24,13,33,28.80
2017,06,24,13,34,28.80
2017,06,24,13,35,28.90
2017,06,24,13,36,28.90
2017,06,24,13,37,28.90
2017,06,24,13,38,29.00
2017,06,24,13,39,29.10
2017,06,24,13,40,29.10
2017,06,24,13,41,29.00
2017,06,24,13,42,28.90
2017,06,24,13,43,28.90
2017,06,24,13,44,28.90
2017,06,24,13,45,28.90
2017,06,24,13,46,28.90
2017,06,24,13,47,28.80
2017,06,24,13,48,28.80
2017,06,24,13,49,28.80
2017,06,24,13,50,28.80
2017,06,24,13,51,28.90
2017,06,24,13,52,29.00
2017,06,24,13,53,28.90
2017,06,24,13,54,28.90
2017,06,24,13,55,28.90
2017,06,24,13,56,28.80
2017,06,24,13,57,28.80
2017,06,24,13,58,28.70
2017,06,24,13,59,28.70
2017,06,24,14,00,28.70
2017,06,24,14,01,28.70
2017,06,24,14,02,28.70
2017,06,24,14,03,28.80
2017,06,24,14,04,28.90
2017,06,24,14,05,29.00
2017,06,24,14,06,29.10
2017,06,24,14,07,29.00
2017,06,24,14,08,28.90
2017,06,24,14,09,28.90
2017,06,24,14,10,29.00
2017,06,24,14,11,29.00
2017,06,24,14,12,28.90
2017,06,24,14,13,28.90
2017,06,24,14,14,28.90
2017,06,24,14,15,28.80
2017,06,24,14,16,28.70
2017,06,24,14,17,28.80
2017,06,24,14,18,28.80
2017,06,24,14,19,28.70
2017,06,24,14,20,28.70
2017,06,24,14,21,28.70
2017,06,24,14,22,28.80
2017,06,24,14,23,28.90
2017,06,24,14,24,29.00
2017,06,24,14,25,29.10
2017,06,24,14,26,29.20
2017,06,24,14,27,29.40
2017,06,24,14,28,29.50
2017,06,24,14,29,29.50
2017,06,24,14,30,29.40
2017,06,24,14,31,29.40
2017,06,24,14,32,29.50
2017,06,24,14,33,29.50
2017,06,24,14,34,29.60
2017,06,24,14,35,29.60
2017,06,24,14,36,29.60
2017,06,24,14,37,29.60
2017,06,24,14,38,29.70
2017,06,24,14,39,29.70
2017,06,24,14,40,29.70
2017,06,24,14,41,29.70
2017,06,24,14,42,29.80
2017,06,24,14,43,29.70
2017,06,24,14,44,29.70
2017,06,24,14,45,29.60
2017,06,24,14,46,29.60
2017,06,24,14,47,29.60
2017,06,24,14,48,29.60
2017,06,24,14,49,29.60
2017,06,24,14,50,29.70
2017,06,24,14,51,29.60
2017,06,24,14,52,29.70
2017,06,24,14,53,29.60
2017,06,24,14,54,29.60
2017,06,24,14,55,29.60
2017,06,24,14,56,29.50
2017,06,24,14,57,29.60
2017,06,24,14,58,29.60
2017,06,24,14,59,29.60
2017,06,24,15,00,29.50
2017,06,24,15,01,29.40
2017,06,24,15,02,29.40
2017,06,24,15,03,29.40
2017,06,24,15,04,29.30
2017,06,24,15,05,29.30
2017,06,24,15,06,29.30
2017,06,24,15,07,29.30
2017,06,24,15,08,29.40
2017,06,24,15,09,29.40
2017,06,24,15,10,29.40
2017,06,24,15,11,29.50
2017,06,24,15,12,29.50
2017,06,24,15,13,29.40
2017,06,24,15,14,29.40
2017,06,24,15,15,29.50
2017,06,24,15,16,29.60
2017,06,24,15,17,29.50
2017,06,24,15,18,29.60
2017,06,24,15,19,29.60
2017,06,24,15,20,29.70
2017,06,24,15,21,29.80
2017,06,24,15,22,29.90
2017,06,24,15,23,29.90
2017,06,24,15,24,29.80
2017,06,24,15,25,29.80
2017,06,24,15,26,29.80
2017,06,24,15,27,30.00
2017,06,24,15,28,30.10
2017,06,24,15,29,30.10
2017,06,24,15,30,30.10
2017,06,24,15,31,30.10
2017,06,24,15,32,30.00
2017,06,24,15,33,30.10
2017,06,24,15,34,30.10
2017,06,24,15,35,30.10
2017,06,24,15,36,30.10
2017,06,24,15,37,30.10
2017,06,24,15,38,30.10
2017,06,24,15,39,30.20
2017,06,24,15,40,30.30
2017,06,24,15,41,30.40
2017,06,24,15,42,30.40
2017,06,24,15,43,30.40
2017,06,24,15,44,30.50
2017,06,24,15,45,30.40
2017,06,24,15,46,30.40
2017,06,24,15,47,30.30
2017,06,24,15,48,30.30
2017,06,24,15,49,30.30
2017,06,24,15,50,30.20
2017,06,24,15,51,30.20
2017,06,24,15,52,30.20
2017,06,24,15,53,30.30
2017,06,24,15,54,30.30
2017,06,24,15,55,30.30
2017,06,24,15,56,30.30
2017,06,24,15,57,30.40
2017,06,24,15,58,30.60
2017,06,24,15,59,30.50
2017,06,24,16,00,30.40
2017,06,24,16,01,30.40
2017,06,24,16,02,30.40
2017,06,24,16,03,30.40
2017,06,24,16,04,30.40
2017,06,24,16,05,30.40
2017,06,24,16,06,30.40
2017,06,24,16,07,30.40
2017,06,24,16,08,30.60
2017,06,24,16,09,30.60
2017,06,24,16,10,30.70
2017,06,24,16,11,30.70
2017,06,24,16,12,30.70
2017,06,24,16,13,30.60
2017,06,24,16,14,30.50
2017,06,24,16,15,30.20
2017,06,24,16,16,30.10
2017,06,24,16,17,30.10
2017,06,24,16,18,30.00
2017,06,24,16,19,29.90
2017,06,24,16,20,29.80
2017,06,24,16,21,29.90
2017,06,24,16,22,29.90
2017,06,24,16,23,30.10
2017,06,24,16,24,30.20
2017,06,24,16,25,30.00
2017,06,24,16,26,29.90
2017,06,24,16,27,29.90
2017,06,24,16,28,30.00
2017,06,24,16,29,30.10
2017,06,24,16,30,30.20
2017,06,24,16,31,30.10
2017,06,24,16,32,30.10
2017,06,24,16,33,30.10
2017,06,24,16,34,30.10
2017,06,24,16,35,30.10
2017,06,24,16,36,30.00
2017,06,24,16,37,29.90
2017,06,24,16,38,29.90
2017,06,24,16,39,29.90
2017,06,24,16,40,29.90
2017,06,24,16,41,30.00
2017,06,24,16,42,30.20
2017,06,24,16,43,30.20
2017,06,24,16,44,30.20
2017,06,24,16,45,30.30
2017,06,24,16,46,30.30
2017,06,24,16,47,30.40
2017,06,24,16,48,30.50
2017,06,24,16,49,30.60
2017,06,24,16,50,30.70
2017,06,24,16,51,30.70
2017,06,24,16,52,30.70
2017,06,24,16,53,30.60
2017,06,24,16,54,30.60
2017,06,24,16,55,30.50
2017,06,24,16,56,30.50
2017,06,24,16,57,30.40
2017,06,24,16,58,30.30
2017,06,24,16,59,30.20
2017,06,24,17,00,30.20
2017,06,24,17,01,30.20
2017,06,24,17,02,30.20
2017,06,24,17,03,30.20
2017,06,24,17,04,30.20
2017,06,24,17,05,30.30
2017,06,24,17,06,30.30
2017,06,24,17,07,30.20
2017,06,24,17,08,30.20
2017,06,24,17,09,30.20
2017,06,24,17,10,30.20
2017,06,24,17,11,30.20
2017,06,24,17,12,30.10
2017,06,24,17,13,30.00
2017,06,24,17,14,29.90
2017,06,24,17,15,29.90
2017,06,24,17,16,29.90
2017,06,24,17,17,29.90
2017,06,24,17,18,29.90
2017,06,24,17,19,30.00
2017,06,24,17,20,30.10
2017,06,24,17,21,30.10
2017,06,24,17,22,30.10
2017,06,24,17,23,30.10
2017,06,24,17,24,30.10
2017,06,24,17,25,30.20
2017,06,24,17,26,30.20
2017,06,24,17,27,30.20
2017,06,24,17,28,30.20
2017,06,24,17,29,30.20
2017,06,24,17,30,30.20
2017,06,24,17,31,30.20
2017,06,24,17,32,30.20
2017,06,24,17,33,30.20
2017,06,24,17,34,30.20
2017,06,24,17,35,30.10
2017,06,24,17,36,30.10
2017,06,24,17,37,30.10
2017,06,24,17,38,30.10
2017,06,24,17,39,30.20
2017,06,24,17,40,30.20
2017,06,24,17,41,30.20
2017,06,24,17,42,30.20
2017,06,24,17,43,30.30
2017,06,24,17,44,30.30
2017,06,24,17,45,30.30
2017,06,24,17,46,30.30
2017,06,24,17,47,30.30
2017,06,24,17,48,30.30
2017,06,24,17,49,30.20
2017,06,24,17,50,30.20
2017,06,24,17,51,30.20
2017,06,24,17,52,30.20
2017,06,24,17,53,30.20
2017,06,24,17,54,30.10
2017,06,24,17,55,30.10
2017,06,24,17,56,30.10
2017,06,24,17,57,30.00
2017,06,24,17,58,29.90
2017,06,24,17,59,29.90
2017,06,24,18,00,29.90
2017,06,24,18,01,29.90
2017,06,24,18,02,29.90
2017,06,24,18,03,29.90
2017,06,24,18,04,29.90
2017,06,24,18,05,29.90
2017,06,24,18,06,29.80
2017,06,24,18,07,29.70
2017,06,24,18,08,29.60
2017,06,24,18,09,29.50
2017,06,24,18,10,29.40
2017,06,24,18,11,29.40
2017,06,24,18,12,29.40
2017,06,24,18,13,29.40
2017,06,24,18,14,29.40
2017,06,24,18,15,29.40
2017,06,24,18,16,29.30
2017,06,24,18,17,29.30
2017,06,24,18,18,29.30
2017,06,24,18,19,29.20
2017,06,24,18,20,29.20
2017,06,24,18,21,29.20
2017,06,24,18,22,29.20
2017,06,24,18,23,29.20
2017,06,24,18,24,29.20
2017,06,24,18,25,29.30
2017,06,24,18,26,29.30
2017,06,24,18,28,29.30
2017,06,24,18,29,29.40
2017,06,24,18,30,29.40
2017,06,24,18,31,29.50
2017,06,24,18,32,29.50
2017,06,24,18,33,29.60
2017,06,24,18,34,29.60
2017,06,24,18,35,29.60
2017,06,24,18,36,29.70
2017,06,24,18,37,29.80
2017,06,24,18,38,29.90
2017,06,24,18,39,29.90
2017,06,24,18,40,29.90
2017,06,24,18,41,30.00
2017,06,24,18,42,29.90
2017,06,24,18,43,29.90
2017,06,24,18,44,29.90
2017,06,24,18,45,29.90
2017,06,24,18,46,29.90
2017,06,24,18,47,29.90
2017,06,24,18,48,29.90
2017,06,24,18,49,29.90
2017,06,24,18,50,29.90
2017,06,24,18,51,29.80
2017,06,24,18,52,29.80
2017,06,24,18,53,29.80
2017,06,24,18,54,29.80
2017,06,24,18,55,29.80
2017,06,24,18,56,29.80
2017,06,24,18,57,29.80
2017,06,24,18,58,29.80
2017,06,24,18,59,29.70
2017,06,24,19,00,29.70
2017,06,24,19,01,29.70
2017,06,24,19,02,29.70
2017,06,24,19,03,29.60
2017,06,24,19,04,29.50
2017,06,24,19,05,29.50
2017,06,24,19,06,29.40
2017,06,24,19,07,29.40
2017,06,24,19,08,29.40
2017,06,24,19,09,29.40
2017,06,24,19,10,29.40
2017,06,24,19,11,29.40
2017,06,24,19,12,29.40
2017,06,24,19,13,29.40
2017,06,24,19,14,29.40
2017,06,24,19,15,29.40
2017,06,24,19,16,29.40
